Cañal Bajo Carlos - Hott Siebert Airport
SCJO : rendu visible

Aérodrome :











RETROUVEZ-NOUS SUR...

 
LOGIN :

S'inscrire | Disclaimer

   EN    FR    IT 

 









Légende :    VFR   VFR Marginal   IFR   IFR Intensif   IFR Très Intensif
Visi : 
Plafond : 
>= 8 km
>= 3000ft
5 à 8 km
1000 à 3000 ft
1500m à 5 km
500 à 1000 ft
800 à 1500m
200 à 500 ft
< 800m
< 200 ft
Symboles :   Orages  Brouillard  Fortes neiges  Fortes précipitations  Vent > 20 kt






- Altitude de l'aérodrome : 187 ft
- Code IATA : ZOS


SCJO - Cañal Bajo Carlos - Hott Siebert

DERNIER METAR :
  • 271800Z 32015KT 9999 OVC040 13/05 Q1012

METARs EXPIRÉS :
  • 271700Z 33011KT 9999 BKN040 SCT200 13/07 Q1012
  • 271600Z 32013KT 9999 BKN050 11/06 Q1012

TAF TAF SCJO
Valide du 27 à 12h jusqu'au 28 à 00h UTC


271012Z 2712/2724 32005KT 9999 SCT030 TN09/2712Z TX12/2718Z
BECMG 2715/2717 SCT035 BKN050
BECMG 2719/2721 32010KT 8000 -RA OVC030
FIR SCTZ / Amérique du Sud



MET'MAP, la Météo Aéronautique d'un coup d'oeil ! - Copyright ORBIFLY Décembre 2007 - Disclaimer

ORBIFLY MET'MAP TEAM :

Programmation & Développement : Alexandra Zaïnal
Sur une idée originale de : Baudouin d'Aumeries
Assistance à la programmation : Marc-Olivier Méhu
Soutien technique & logistique : Manuel Goepfert

Contact : metmap@orbifly.com




SOURCES & CREDITS :

   NOAA       Earth
Advisory